Location: Hoyos del Collado
(40.3594°N, 5.2003°W)
Time: 13:00:33
(UTC+00:00)

CENTAUR R/B - Pass Details

Date: 18 April 2024
Orbit: 669 x 1515 km, 63.4° (Epoch: 26 May)

Event Time Altitude Azimuth Distance (km) Brightness Sun altitude
Rises 21:31:14 0° 328° (NNW) 4,135 7.0 -25.3°
Reaches altitude 10° 21:34:11 10° 337° (NNW) 3,285 6.1 -25.7°
Maximum altitude 21:41:39 36° 42° (NE) 2,091 4.2 -26.7°
Enters shadow 21:45:02 28° 81° (E) 2,463 4.2 -27.2°
